Regional Weather Roundup
Issued by NWS

Home | Current Version | Previous Version | Graphics & Text | Print | Product List | Glossary On
Versions: 1 2 3 4 5 6 7 8 9 10 11 12 13 14 15 16 17 18 19 20 21 22 23 24 25 26 27 28 29 30 31 32 33 34 35 36 37 38 39 40 41 42 43 44 45 46 47 48 49 50
000
ASUS43 KOAX 222110
RWRNE

WEATHER ROUNDUP FOR NEBRASKA
NATIONAL WEATHER SERVICE OMAHA NE
400 PM CDT WED MAR 22 2017

NOTES: SATELLITE DATA IS BEING USED TO AUGMENT CLOUD COVER ABOVE
       12000 FEET.
       "FAIR" INDICATES FEW OR NO CLOUDS BELOW 12,000 FEET WITH NO
       SIGNIFICANT WEATHER AND/OR OBSTRUCTIONS TO VISIBILITY.

  * THESE STATIONS DO NOT REPORT WEATHER SUCH AS RAIN...SNOW OR FOG.

NEZ001>004-019>022-054>056-222200-
NEBRASKA PANHANDLE

CITY           SKY/WX    TMP DP  RH WIND       PRES   REMARKS
SCOTTSBLUFF    SUNNY     67  33  28 SE21      29.83F
ALLIANCE       SUNNY     62  35  36 S25       29.87F
CHADRON        SUNNY     65  35  33 S18G30    29.82F
KIMBALL        SUNNY     68  38  32 S18       29.89F
SIDNEY         SUNNY     64  35  34 S22G28    29.90F
$$

NEZ057>060-069>072-079>082-222200-
SOUTHWEST NEBRASKA

CITY           SKY/WX    TMP DP  RH WIND       PRES   REMARKS
NORTH PLATTE   CLOUDY    51  28  41 S15       30.03F
IMPERIAL       SUNNY     58  35  42 S25G31    29.98F
LEXINGTON      CLOUDY    51  26  38 S17G24    30.08F
MCCOOK         PTSUNNY   54  32  43 S18G26    30.04F
OGALLALA       SUNNY     63  36  36 S17G26    29.95F
$$

NEZ005>010-023>029-035>040-094-222200-
NORTH CENTRAL NEBRASKA

CITY           SKY/WX    TMP DP  RH WIND       PRES   REMARKS
VALENTINE      CLOUDY    55  31  39 S21G33    29.95F
AINSWORTH      CLOUDY    50  31  48 S25G32    30.00F
BROKEN BOW     CLOUDY    50  26  39 S22G30    30.07F
O`NEILL        CLOUDY    49  22  34 SE24G30   30.10F
ORD            CLOUDY    50  20  30 S18G28    30.09F
THEDFORD       CLOUDY    52  32  46 S22G29    30.00F
$$

NEZ041-046>049-061>064-073>077-083>087-222200-
SOUTH CENTRAL NEBRASKA

CITY           SKY/WX    TMP DP  RH WIND       PRES   REMARKS
GRAND ISLAND   CLOUDY    56  23  27 SE16G26   30.13F
AURORA         CLOUDY    56  21  25 S16G22    30.15F
HASTINGS       CLOUDY    56  22  26 S17G24    30.13F
HEBRON         CLOUDY    57  15  19 SE16G23   30.16F
HOLDREGE       CLOUDY    51  24  34 S17G23    30.09F
KEARNEY *      CLOUDY    54  25  32 SE20G26   30.12F
YORK           MOSUNNY   55  14  19 SE20      30.16F
$$

NEZ011>018-030>034-042>045-222200-
NORTHEAST NEBRASKA

CITY           SKY/WX    TMP DP  RH WIND       PRES   REMARKS
NORFOLK        CLOUDY    50  18  28 S18G28    30.17F
ALBION         CLOUDY    52  15  22 SE18G25   30.15F
BLAIR          CLOUDY    49  22  34 SE13      30.24F
FREMONT        CLOUDY    49  22  34 SE15      30.24F
TEKAMAH        CLOUDY    49  24  37 SE17      30.26F
WAYNE          CLOUDY    46  24  42 SE20      30.21F
$$

NEZ050>053-065>068-078-088>093-222200-
SOUTHEAST NEBRASKA

CITY           SKY/WX    TMP DP  RH WIND       PRES   REMARKS
LINCOLN        CLOUDY    53  20  27 E13       30.23F
OMAHA EPPLEY   CLOUDY    50  21  32 SE16      30.26F
BEATRICE       CLOUDY    58  20  22 SE14G23   30.18F
FALLS CITY     SUNNY     58  22  24 E13G22    30.22F
NEBRASKA CITY  CLOUDY    52  13  21 E17       30.24F
PLATTSMOUTH    CLOUDY    50  17  27 SE15      30.24F
$$

NEZ044-045-051>053-067-222200-
OMAHA AREA

CITY           SKY/WX    TMP DP  RH WIND       PRES   REMARKS
OMAHA EPPLEY   CLOUDY    50  21  32 SE16      30.26F
BLAIR          CLOUDY    49  22  34 SE13      30.24F
FREMONT        CLOUDY    49  22  34 SE15      30.24F
MILLARD        CLOUDY    51  25  36 SE13G21   30.25F
OFFUTT AFB     PTSUNNY   49  22  34 E17       30.26F
PLATTSMOUTH    CLOUDY    50  17  27 SE15      30.24F
WAHOO          CLOUDY    51  19  27 SE20G25   30.23F
$$




USA.gov is the U.S. government's official web portal to all federal, state and local government web resources and services.